[[{"header":{"parameterUnit":"m.s-1","parameterCategory":1,"la1":30.2991,"la2":30.254,"lo1":-89.0895,"lo2":-89.0444,"dy":0.0017,"dx":0.0017,"nx":28,"ny":28,"refTime":"2025-11-22T09:00:00:Z","depth":0,"parameterNumber":2,"parameterNumberName":"U-component_of_WINDS"},"data":[0,0,0,0,0,0,0,0,0,0,0,0,0,0,0,0,0,0,0,0,0,0,0,0,0,0,0,0,0,0,0,0,0,0,0,0,0,0,0,0,0,0,0,0,0,0,0,0,0,0,0,0,0,0,0,0,0,0,0.8463,0.8464,0,0.8495,0.8495,0.8495,0.8484,0.8484,0.8483,0.8482,0.8513,0.8515,0.8516,0,0,0,0,0,0,0,0,0,0,0,0,0,0.8391,0.8393,0.8463,0.8464,0.8464,0.8495,0.8495,0.8496,0.8484,0.8483,0.8483,0.8482,0.8513,0.8514,0.8516,0,0,0,0,0,0,0,0,0,0,0,0,0,0.8423,0.8393,0.8463,0.8462,0.8462,0.8495,0.8495,0.8496,0.8485,0.8483,0.8482,0.8481,0.8512,0.8514,0.8516,0.8551,0,0,0.8523,0.8524,0,0,0,0,0,0,0,0,0.8421,0.8425,0.8462,0.8462,0.8463,0.8485,0.8481,0.8514,0.8485,0.8476,0.8482,0.8481,0.8504,0.8507,0.8515,0.8553,0.8554,0.8523,0.8525,0.8526,0.8526,0,0,0,0,0,0,0,0.8419,0.8424,0.8476,0.8462,0.8463,0.8459,0.8463,0.8487,0.8496,0.8477,0.8476,0.848,0.8504,0.8513,0.8516,0.8554,0.8523,0.8525,0.8527,0.8528,0.8621,0.8622,0,0,0,0,0,0,0.8417,0.8422,0.8475,0.8477,0.8439,0.8462,0.8465,0.8479,0.8495,0.8497,0.8481,0.8479,0.851,0.8513,0.8517,0.8559,0.8526,0.8528,0.8529,0.862,0.8621,0.8622,0,0,0,0,0,0,0.8415,0.8421,0.8473,0.8449,0.8456,0.8464,0.8479,0.848,0.8489,0.8499,0.85,0.8489,0.8509,0.8514,0.8543,0.856,0.8529,0.8531,0.8619,0.862,0.8622,0.8642,0,0,0,0,0,0,0.8413,0.8421,0.8435,0.845,0.8457,0.8499,0.848,0.8481,0.8493,0.8491,0.8506,0.8508,0.8509,0.854,0.8545,0.8562,0.8533,0.8617,0.8619,0.8621,0.864,0.8645,0.8648,0,0,0,0,0,0.8411,0.8439,0.8436,0.8442,0.8475,0.85,0.8504,0.8506,0.8494,0.8508,0.8514,0.8507,0.8557,0.8543,0.8549,0.8567,0.8616,0.8619,0.8621,0.8638,0.8644,0.8648,0,0,0,0,0,0,0.8426,0.8441,0.8437,0.8472,0.8485,0.8498,0.8516,0.8511,0.8528,0.8525,0.8526,0.8529,0.8559,0.8565,0.8549,0.8601,0.8585,0.8588,0.8596,0.8601,0.8605,0.8603,0.8534,0,0,0,0,0,0.8433,0.8454,0.8465,0.8495,0.8501,0.8507,0.8519,0.8518,0.8532,0.8537,0.8546,0.8558,0.8577,0.8589,0.8606,0.8641,0.8644,0.8656,0.866,0.8663,0.8667,0.8685,0.8691,0.8631,0.8631,0.8631,0,0,0.8449,0.846,0.8472,0.8498,0.8508,0.8528,0.8512,0.8534,0.8549,0.854,0.8568,0.8575,0.8589,0.8621,0.8635,0.8627,0.8684,0.8667,0.8669,0.8671,0.8688,0.8694,0.8699,0.8633,0.8632,0.8632,0,0,0.8488,0.8498,0.8523,0.8534,0.8549,0.8553,0.8559,0.8573,0.8577,0.8605,0.8598,0.8616,0.8647,0.8658,0.8667,0.8709,0.8703,0.8714,0.8736,0.8753,0.8758,0.8762,0.8777,0.8782,0.8718,0.8718,0.8718,0,0.8505,0.8536,0.8537,0.856,0.8571,0.8563,0.8589,0.8598,0.8619,0.8626,0.8617,0.8657,0.8666,0.8699,0.871,0.8717,0.8724,0.8713,0.8757,0.8762,0.8765,0.878,0.8785,0.8719,0.8719,0.8719,0.8719,0,0.8556,0.8578,0.8596,0.8616,0.8629,0.8653,0.8657,0.867,0.8668,0.8672,0.8701,0.8711,0.873,0.8738,0.8737,0.8771,0.8766,0.8757,0.8741,0.8772,0.8786,0.8791,0.8721,0.872,0.872,0.872,0,0,0.8607,0.8626,0.8633,0.8642,0.8658,0.8674,0.8697,0.8717,0.8728,0.8741,0.8761,0.8787,0.8779,0.8789,0.8789,0.8804,0.8836,0.8793,0.8794,0.8801,0.8875,0.8882,0.8889,0.8832,0.8833,0.8834,0.8874,0,0.8647,0.8688,0.8689,0.8727,0.8746,0.8739,0.8759,0.8771,0.8775,0.8792,0.8796,0.8815,0.8803,0.8809,0.8824,0.8829,0.8851,0.8826,0.885,0.8851,0.8847,0.8895,0.8903,0.8941,0.8879,0.888,0.8881,0,0.87,0.8716,0.8755,0.8768,0.8776,0.8794,0.8812,0.8828,0.884,0.8842,0.8854,0.8851,0.8873,0.8856,0.8887,0.887,0.8879,0.8883,0.8885,0.8888,0.8868,0.89,0.8952,0.8958,0.8889,0.8888,0.8888,0,0.8733,0.8764,0.8791,0.8799,0.8815,0.8828,0.8835,0.8846,0.8857,0.8872,0.8879,0.8896,0.8906,0.8919,0.892,0.8907,0.8951,0.8934,0.8953,0.8953,0.8963,0.8963,0.9019,0.8969,0.8969,0.8968,0.8968,0,0.8778,0.8802,0.8806,0.8824,0.8851,0.8851,0.8877,0.8883,0.8893,0.8911,0.8905,0.8922,0.8922,0.8938,0.8939,0.8965,0.8969,0.8971,0.8971,0.8972,0.8972,0.8979,0.8976,0.897,0.897,0.8969,0.8969,0,0.8819,0.8823,0.8853,0.8865,0.8869,0.8888,0.8898,0.8914,0.8918,0.894,0.8945,0.895,0.897,0.8972,0.8994,0.8994,0.9025,0.9022,0.9021,0.9021,0.9041,0.9039,0.9103,0.9112,0.9056,0.9056,0.9057,0,0.8848,0.8867,0.8881,0.8893,0.8901,0.892,0.8931,0.8931,0.8943,0.8959,0.8973,0.8991,0.9006,0.9037,0.9043,0.9059,0.9057,0.9078,0.9059,0.906,0.9058,0.9057,0.9059,0.9082,0.9083,0.9083,0.9084,0,0.8899,0.89,0.8917,0.8935,0.8949,0.8963,0.8975,0.8985,0.8987,0.9,0.902,0.9032,0.9054,0.9073,0.9089,0.9095,0.909,0.9089,0.9095,0.9096,0.9095,0.9096,0.9032,0.9088,0.9088,0.9087,0.9087,0.9087,0.8936,0.8952,0.8965,0.8984,0.8993,0.9005,0.9021,0.9026,0.9043,0.9062,0.906,0.9082,0.9093,0.9115,0.9122,0.9139,0.9132,0.914,0.9142,0.9144,0.9146,0.9092,0.9142,0.9142,0.9141,0.9141,0.9141,0,0.8987,0.8994,0.9012,0.903,0.9045,0.9038,0.9052,0.9064,0.9084,0.9095,0.911,0.9132,0.915,0.9156,0.9173,0.9185,0.9183,0.919,0.9189,0.9191,0.9151,0.9145,0.9191,0.9191,0.9191,0.9191,0.9191,0.9191,0.9015,0.9042,0.9044,0.9076,0.9083,0.9105,0.9113,0.9124,0.9133,0.9158,0.9173,0.9177,0.9186,0.9204,0.9219,0.9221,0.9227,0.9235,0.9236,0.9199,0.9194,0.9189,0.9183,0.9237,0.9237,0.9274,0.9274,0.9275]},{"header":{"parameterUnit":"m.s-1","parameterCategory":1,"la1":30.2991,"la2":30.254,"lo1":-89.0895,"lo2":-89.0444,"dy":0.0017,"dx":0.0017,"nx":28,"ny":28,"refTime":"2025-11-22T09:00:00:Z","depth":0,"parameterNumber":3,"parameterNumberName":"V-component_of_WINDS"},"data":[0,0,0,0,0,0,0,0,0,0,0,0,0,0,0,0,0,0,0,0,0,0,0,0,0,0,0,0,0,0,0,0,0,0,0,0,0,0,0,0,0,0,0,0,0,0,0,0,0,0,0,0,0,0,0,0,0,0,3.2394,3.2394,0,3.2421,3.2422,3.2422,3.2403,3.2402,3.2401,3.24,3.2426,3.2427,3.2429,0,0,0,0,0,0,0,0,0,0,0,0,0,3.2321,3.2322,3.2394,3.2394,3.2394,3.2421,3.2422,3.2422,3.2403,3.2402,3.2401,3.24,3.2425,3.2427,3.2429,0,0,0,0,0,0,0,0,0,0,0,0,0,3.2351,3.2323,3.2394,3.2388,3.2388,3.2421,3.2422,3.2422,3.2403,3.2402,3.2401,3.2399,3.2425,3.2427,3.2429,3.2468,0,0,3.2436,3.2437,0,0,0,0,0,0,0,0,3.2349,3.2354,3.2389,3.2389,3.2388,3.2407,3.2405,3.2437,3.2403,3.2397,3.24,3.2399,3.2421,3.2423,3.2431,3.2469,3.2471,3.2436,3.2437,3.2438,3.2439,0,0,0,0,0,0,0,3.2347,3.2352,3.2405,3.2389,3.2389,3.2383,3.2386,3.2411,3.2416,3.2398,3.2396,3.24,3.242,3.2429,3.2431,3.2471,3.2436,3.2438,3.2439,3.244,3.2542,3.2544,0,0,0,0,0,0,3.2346,3.2351,3.2404,3.2405,3.2365,3.2386,3.2389,3.2403,3.2415,3.2416,3.2401,3.2399,3.2426,3.2429,3.2432,3.2479,3.2438,3.244,3.2442,3.2541,3.2543,3.2544,0,0,0,0,0,0,3.2345,3.2351,3.2403,3.2378,3.2384,3.2388,3.2404,3.2404,3.2412,3.2418,3.2418,3.2409,3.2425,3.2429,3.2459,3.248,3.2441,3.2443,3.2539,3.2541,3.2543,3.2573,0,0,0,0,0,0,3.2343,3.2351,3.2367,3.2378,3.2385,3.2431,3.2405,3.2405,3.2417,3.2414,3.2426,3.2427,3.2424,3.2456,3.2462,3.2482,3.2445,3.2538,3.254,3.2543,3.257,3.2576,3.2581,0,0,0,0,0,3.234,3.2373,3.2367,3.2374,3.2405,3.2432,3.2436,3.2433,3.2418,3.2434,3.2437,3.2426,3.2476,3.246,3.2465,3.2487,3.2536,3.2539,3.2542,3.2568,3.2575,3.2581,0,0,0,0,0,0,3.2363,3.2375,3.2368,3.2407,3.2419,3.2429,3.2448,3.244,3.2456,3.2453,3.2448,3.2451,3.2483,3.2487,3.2469,3.2525,3.2504,3.2508,3.2521,3.2528,3.2533,3.2532,3.2447,0,0,0,0,0,3.2373,3.2395,3.2403,3.2436,3.2442,3.2444,3.2456,3.2452,3.2464,3.2469,3.2474,3.2485,3.2503,3.2515,3.2532,3.257,3.2572,3.2588,3.2593,3.2597,3.2601,3.2621,3.2628,3.2554,3.2554,3.2554,0,0,3.2393,3.2402,3.2416,3.2441,3.245,3.2471,3.2449,3.2472,3.2488,3.2472,3.2502,3.2506,3.2517,3.2552,3.2567,3.2557,3.2622,3.2601,3.2604,3.2606,3.2625,3.2632,3.2639,3.2556,3.2556,3.2556,0,0,3.2441,3.245,3.2479,3.2488,3.2502,3.2502,3.2509,3.252,3.2523,3.2552,3.2541,3.2558,3.259,3.2598,3.2607,3.2657,3.2647,3.2662,3.269,3.2709,3.2715,3.272,3.2738,3.2745,3.2666,3.2666,3.2666,0,3.2465,3.2498,3.2494,3.2519,3.253,3.2516,3.2545,3.2553,3.2571,3.2579,3.2567,3.2605,3.2612,3.2649,3.2661,3.2668,3.2675,3.2661,3.2715,3.272,3.2725,3.2742,3.2749,3.2668,3.2668,3.2667,3.2667,0,3.2526,3.2548,3.2569,3.2588,3.2601,3.2627,3.2627,3.264,3.2635,3.2637,3.2666,3.2674,3.2692,3.27,3.2695,3.2735,3.2728,3.2715,3.2694,3.2734,3.275,3.2756,3.267,3.267,3.2669,3.2669,0,0,3.2591,3.2607,3.2615,3.2623,3.2636,3.2653,3.2678,3.2696,3.2708,3.272,3.274,3.2767,3.2755,3.2764,3.276,3.2777,3.2816,3.2762,3.2762,3.2772,3.2861,3.2871,3.2879,3.2809,3.281,3.2811,3.286,0,3.2641,3.2686,3.2682,3.2724,3.2745,3.2731,3.2753,3.2763,3.2764,3.2781,3.2782,3.2801,3.2784,3.279,3.2806,3.2808,3.2834,3.2804,3.2828,3.2829,3.2827,3.2887,3.2899,3.2945,3.2866,3.2867,3.2868,0,3.2705,3.2721,3.2765,3.2774,3.2783,3.2802,3.2818,3.2835,3.2845,3.2845,3.2855,3.2847,3.2871,3.2848,3.2881,3.2861,3.287,3.2872,3.2874,3.2877,3.2852,3.2893,3.2959,3.2967,3.2878,3.2877,3.2876,0,3.275,3.2781,3.2811,3.2818,3.283,3.2844,3.2849,3.2858,3.2869,3.2882,3.2889,3.2905,3.2914,3.2926,3.2922,3.2906,3.2955,3.2932,3.2956,3.2956,3.2968,3.2968,3.3038,3.2972,3.2972,3.2972,3.2972,0,3.2806,3.2834,3.2831,3.285,3.288,3.2875,3.2905,3.2908,3.2916,3.2934,3.2922,3.294,3.2933,3.295,3.2947,3.2975,3.2978,3.2979,3.2978,3.2981,3.2981,3.2987,3.2985,3.2974,3.2973,3.2973,3.2973,0,3.2862,3.2861,3.2894,3.2902,3.2904,3.2926,3.2932,3.2949,3.2949,3.2973,3.2978,3.2978,3.2997,3.2994,3.3015,3.3013,3.3047,3.3042,3.3044,3.3043,3.3068,3.3066,3.3146,3.3156,3.3082,3.3083,3.3084,0,3.2899,3.292,3.293,3.2942,3.2948,3.2967,3.2979,3.2973,3.2985,3.2997,3.3013,3.3031,3.3045,3.3075,3.3077,3.3092,3.3088,3.3115,3.309,3.3092,3.3089,3.3089,3.3091,3.312,3.3121,3.3121,3.3122,0,3.2965,3.2963,3.298,3.2997,3.301,3.3023,3.3034,3.3044,3.304,3.3053,3.3073,3.3084,3.3105,3.3123,3.3137,3.3141,3.3131,3.3129,3.3136,3.314,3.3141,3.3141,3.3059,3.3128,3.3127,3.3127,3.3127,3.3126,3.3013,3.3031,3.3041,3.306,3.3067,3.3078,3.3095,3.3096,3.3113,3.313,3.3125,3.3147,3.3155,3.3174,3.3179,3.3196,3.3186,3.3195,3.3198,3.32,3.3204,3.3137,3.3198,3.3198,3.3198,3.3198,3.3197,0,3.3079,3.3084,3.3102,3.3118,3.3133,3.3121,3.3133,3.3146,3.3165,3.3174,3.3188,3.321,3.3227,3.3229,3.3244,3.3257,3.3253,3.3262,3.3261,3.3262,3.3211,3.3205,3.3265,3.3265,3.3265,3.3265,3.3265,3.3265,3.3115,3.3145,3.3144,3.3177,3.3182,3.3204,3.3212,3.3221,3.3228,3.3253,3.3267,3.3268,3.3274,3.329,3.3304,3.3304,3.3311,3.3322,3.332,3.3273,3.3266,3.326,3.3253,3.3323,3.3323,3.337,3.3371,3.3371]}]]